This is the latest recevied weather packets stored in our database for station/object KE8ZLU. If no packets are shown the sender has not sent any weather packets the latest 1 day(s).
| Time | Temp. | Humidity | Pressure | Rain* | Wind** | Luminosity | Snow |
|---|---|---|---|---|---|---|---|
| 1778046879 | 7.78° C | 66% | 1011.1 hPa | 0 mm | 1.34 m/s, 289° | 0 W/m² | - |
| 1778046575 | 7.78° C | 65% | 1011 hPa | 0 mm | 0.89 m/s, 293° | 0 W/m² | - |
| 1778046272 | 7.78° C | 65% | 1011.4 hPa | 0 mm | 1.34 m/s, 283° | 0 W/m² | - |
| 1778045968 | 7.78° C | 64% | 1011 hPa | 0 mm | 1.79 m/s, 295° | 0 W/m² | - |
| 1778045667 | 7.78° C | 64% | 1011.1 hPa | 0 mm | 1.79 m/s, 305° | 0 W/m² | - |
| 1778045365 | 7.78° C | 65% | 1011 hPa | 0 mm | 1.34 m/s, 293° | 0 W/m² | - |
| 1778045063 | 7.78° C | 63% | 1010.8 hPa | 0 mm | 2.68 m/s, 333° | 0 W/m² | - |
| 1778044761 | 7.78° C | 64% | 1010.8 hPa | 0 mm | 2.24 m/s, 295° | 0 W/m² | - |
| 1778044457 | 7.78° C | 64% | 1010.9 hPa | 0 mm | 1.34 m/s, 295° | 0 W/m² | - |
| 1778044154 | 7.78° C | 64% | 1010.5 hPa | 0 mm | 1.34 m/s, 291° | 0 W/m² | - |
| 1778043852 | 7.78° C | 64% | 1010.7 hPa | 0 mm | 1.79 m/s, 299° | 0 W/m² | - |
| 1778043551 | 7.78° C | 62% | 1010.6 hPa | 0 mm | 2.24 m/s, 288° | 0 W/m² | - |
| 1778043246 | 7.78° C | 63% | 1010.6 hPa | 0 mm | 1.34 m/s, 295° | 0 W/m² | - |
| 1778042942 | 7.78° C | 65% | 1010.8 hPa | 0 mm | 0.89 m/s, 301° | 0 W/m² | - |
| 1778042640 | 7.78° C | 65% | 1010.6 hPa | 0 mm | 0.89 m/s, 277° | 0 W/m² | - |
| 1778042337 | 7.78° C | 64% | 1010.7 hPa | 0 mm | 1.34 m/s, 302° | 0 W/m² | - |
| 1778042034 | 7.78° C | 64% | 1010.8 hPa | 0 mm | 1.79 m/s, 288° | 0 W/m² | - |
| 1778041732 | 7.78° C | 65% | 1010.6 hPa | 0 mm | 1.34 m/s, 303° | 0 W/m² | - |
| 1778041431 | 7.78° C | 64% | 1010.9 hPa | 0 mm | 1.79 m/s, 283° | 0 W/m² | - |
| 1778041129 | 7.78° C | 64% | 1010.7 hPa | 0 mm | 1.79 m/s, 294° | 0 W/m² | - |
| 1778040826 | 7.78° C | 64% | 1010.7 hPa | 0 mm | 1.34 m/s, 293° | 0 W/m² | - |
| 1778040523 | 7.78° C | 63% | 1010.5 hPa | 0 mm | 1.34 m/s, 297° | 0 W/m² | - |
| 1778040221 | 7.78° C | 62% | 1010.4 hPa | 0 mm | 1.79 m/s, 292° | 0 W/m² | - |
| 1778039916 | 7.78° C | 63% | 1010.6 hPa | 0 mm | 1.79 m/s, 311° | 0 W/m² | - |
| 1778039614 | 7.78° C | 64% | 1010.6 hPa | 0 mm | 1.34 m/s, 311° | 0 W/m² | - |
* Rain latest hour (hover to see other rain measurements)
** Current wind speed in m/s (hover to see current wind gust speed)